Weather History for Montreal, QC

Change the Weather History Date:

Thursday, November 24, 2011

  Actual Average Record
Temperature  
Mean Temperature 32 °F -  
Max Temperature 39 °F 37 °F 62 °F (1999)
Min Temperature 24 °F 26 °F 6 °F (1996)
Degree Days  
Heating Degree Days 34    
Moisture  
Dew Point 28 °F    
Average Humidity 79    
Maximum Humidity 87    
Minimum Humidity 63    
Precipitation  
Precipitation 0.00 in - - ()
Sea Level Pressure  
Sea Level Pressure 30.07 in    
Wind  
Wind Speed 5 mph ()    
Max Wind Speed 16 mph    
Max Gust Speed -    
Visibility 12.6 miles    
Events      
Averages and records for this station are not official NWS values.
T = Trace of Precipitation, MM = Missing Value Source: Averaged Metar Reports

Daily Weather History Graph

Daily Weather History Graph

Search for Another Location

Airport:

Trip Planner

Search our weather history database for the weather conditions in past years. The results will help you decide how hot, cold, wet, or windy it might be!

Date:

Astronomy

Nov. 24, 2011 Rise Set
Actual Time 7:05 AM EST 4:17 PM EST
Civil Twilight 6:32 AM EST 4:50 PM EST
Nautical Twilight 5:56 AM EST 5:26 PM EST
Astronomical Twilight 5:20 AM EST 6:01 PM EST
Moon 6:21 AM EST (11/24) 3:44 PM EST (11/24)
Length of Visible Light 10h 17m
Length of Day
9h 11m
Waning Crescent, 0% of the Moon is Illuminated
Nov 24
Waning Crescent
Nov 25
New
Dec 2
First Quarter
Dec 10
Full
Dec 17
Last Quarter

Hourly Weather History & Observations

Time (EST) Temp. Windchill Dew Point Humidity Pressure Visibility Wind Dir Wind Speed Gust Speed Precip Events Conditions
12:00 AM 28.4 °F - 23.0 °F 80% 30.09 in 15.0 mi Calm Calm - N/A   Overcast
1:00 AM 29 °F - 22 °F 67% 30.09 in 15 mi Calm Calm - -   Partly Cloudy
1:00 AM 28.4 °F - 23.0 °F 80% 30.09 in 15.0 mi Calm Calm - N/A   Overcast
2:00 AM 26.6 °F 22.6 °F 21.2 °F 80% 30.07 in 15.0 mi South 3.5 mph - N/A   Mostly Cloudy
3:00 AM 26.6 °F 22.6 °F 23.0 °F 86% 30.06 in 15.0 mi WSW 3.5 mph - N/A   Overcast
4:00 AM 28.4 °F - 24.8 °F 86% 30.08 in 15.0 mi Calm Calm - N/A   Overcast
5:00 AM 32.0 °F 24.8 °F 26.6 °F 80% 30.06 in 15.0 mi South 8.1 mph - N/A   Overcast
6:00 AM 32.0 °F 23.6 °F 24.8 °F 75% 30.05 in 15.0 mi South 10.4 mph - N/A   Overcast
7:00 AM 33 °F - 27 °F 69% 30.07 in 15 mi SW 8.1 mph - -   Overcast
7:00 AM 33.8 °F 27.0 °F 26.6 °F 75% 30.07 in 15.0 mi SW 8.1 mph - N/A   Overcast
8:00 AM 33.8 °F 26.4 °F 26.6 °F 75% 30.08 in 15.0 mi WSW 9.2 mph - N/A   Overcast
8:41 AM 33.8 °F 26.4 °F - N/A% - 15.0 mi WSW 9.2 mph - N/A   Overcast
9:00 AM 33.8 °F 26.4 °F 26.6 °F 75% 30.09 in 12.0 mi WSW 9.2 mph - N/A   Overcast
9:22 AM 33.8 °F 27.0 °F - N/A% - 12.0 mi WSW 8.1 mph - N/A   Overcast
10:00 AM 33.8 °F 27.7 °F 28.4 °F 81% 30.10 in 12.0 mi WSW 6.9 mph - N/A   Overcast
11:00 AM 33.8 °F 28.6 °F 28.4 °F 81% 30.09 in 15.0 mi WSW 5.8 mph - N/A   Overcast
1:00 PM 36 °F - 30 °F 72% 30.06 in 15 mi WSW 10.4 mph - -   Overcast
1:00 PM 35.6 °F 28.6 °F 30.2 °F 81% 30.06 in 15.0 mi WSW 9.2 mph - N/A   Overcast
2:00 PM 35.6 °F 30.7 °F 30.2 °F 81% 30.06 in 15.0 mi SW 5.8 mph - N/A   Overcast
2:48 PM 37.4 °F - - N/A% - 8.0 mi SW 2.3 mph - N/A   Light Drizzle
3:00 PM 37.4 °F 33.8 °F 32.0 °F 81% 30.07 in 8.0 mi SW 4.6 mph - N/A   Light Drizzle
3:42 PM 37.4 °F 32.8 °F - N/A% - 10.0 mi WSW 5.8 mph - N/A   Overcast
4:00 PM 37.4 °F 33.8 °F 32.0 °F 81% 30.06 in 10.0 mi SW 4.6 mph - N/A   Light Drizzle
5:00 PM 37.4 °F 32.8 °F 32.0 °F 81% 30.06 in 10.0 mi SW 5.8 mph - N/A   Overcast
5:22 PM 35.6 °F 32.8 °F - N/A% - 10.0 mi South 3.5 mph - N/A   Overcast
6:00 PM 35.6 °F 29.9 °F 32.0 °F 87% 30.07 in 10.0 mi South 6.9 mph - N/A   Overcast
6:48 PM 37.4 °F 33.8 °F - N/A% - 10.0 mi SW 4.6 mph - N/A   Overcast
7:00 PM 38 °F - 30 °F 63% 30.07 in 10 mi SW 3.5 mph - -   Partly Cloudy
7:00 PM 39.2 °F 37.0 °F 33.8 °F 81% 30.07 in 10.0 mi SW 3.5 mph - N/A   Overcast
8:00 PM 39.2 °F 31.6 °F 33.8 °F 81% 30.06 in 10.0 mi WSW 12.7 mph - N/A   Overcast
10:00 PM 39.2 °F 30.5 °F 33.8 °F 81% 30.04 in 10.0 mi WSW 16.1 mph - N/A   Overcast
11:00 PM 39.2 °F 32.0 °F 33.8 °F 81% 30.03 in 10.0 mi SW 11.5 mph - N/A   Overcast